Flag for United Kingdom Weather past 2 weeks in Birmingham, England, United Kingdom

Now
68 °F

Scattered clouds.


Feels Like: 68 °F
Forecast: 54 / 71 °F
Wind: 6 mph from Southeast

Location: Birmingham / Airport

Current Time: Sep 2, 2014 at 5:44:37 PM

Latest Report: Sep 2, 2014 at 5:20 PM


Visibility: N/A

Pressure: 30.21 "Hg

Humidity: 53%

Dew point: 50 °F

Location of BirminghamLocation

Historic Weather in Birmingham — Graph

°F

Birmingham temperature yesterday

Maximum temperature yesterday: 66 °F (at 4:50 PM)
Minimum temperature yesterday: 54 °F (at 12:20 AM)
Average temperature yesterday: 60 °F

Past Weeks' High & Low Weather Summary

 TemperatureHumidityPressure
High68 °F (Aug 28, 3:20 PM)100% (Aug 25, 5:20 AM)30.24 "Hg (Aug 25, 5:20 AM)
Low45 °F (Aug 21, 3:20 AM)42% (Aug 18, 6:20 PM)29.53 "Hg (Aug 25, 8:50 PM)
Average58 °F76%29.93 "Hg
* Reported Aug 18 4:20 PM — Sep 2 4:50 PM, Birmingham, Weather by CustomWeather, © 2014

Note: Actual official high and low records may vary slightly from our data, if they occured in-between our weather recording intervals... More about our weather records

Advertising

Birmingham weather history for previous 24 hours

 ConditionsComfort  
Time TempWeatherWind HumidityBarometerVisibility
4:50 PM
Sep 2
66 °FScattered clouds.5 mph56%30.21 "HgN/A
4:20 PM68 °FScattered clouds.7 mph53%30.21 "HgN/A
3:50 PM66 °FScattered clouds.6 mph52%30.21 "HgN/A
3:20 PM66 °FScattered clouds.6 mph56%30.21 "HgN/A
2:50 PM68 °FScattered clouds.3 mph49%30.21 "HgN/A
2:20 PM66 °FScattered clouds.6 mph52%30.21 "HgN/A
1:50 PM66 °FScattered clouds.6 mph56%30.24 "HgN/A
1:20 PM66 °FScattered clouds.3 mph56%30.24 "HgN/A
12:50 PM64 °FScattered clouds.3 mph60%30.24 "HgN/A
12:20 PM64 °FScattered clouds.5 mph60%30.24 "HgN/A
11:50 AM64 °FPassing clouds.5 mph60%30.24 "HgN/A
11:20 AM64 °FPassing clouds.7 mph60%30.24 "HgN/A
10:50 AM63 °FPassing clouds.6 mph64%30.24 "HgN/A
10:20 AM63 °FPassing clouds.5 mph68%30.24 "HgN/A
9:50 AM61 °FPassing clouds.6 mph68%30.24 "HgN/A
9:20 AM59 °FPassing clouds.5 mph72%30.24 "HgN/A
8:50 AM57 °FScattered clouds.3 mph77%30.24 "HgN/A
8:20 AM55 °FPartly sunny.3 mph82%30.24 "HgN/A
7:50 AM55 °FPartly sunny.3 mph82%30.24 "HgN/A
7:20 AM54 °FOvercast.3 mph88%30.21 "HgN/A
6:50 AM54 °FPassing clouds.5 mph88%30.21 "HgN/A
6:20 AM54 °FPassing clouds.5 mph88%30.21 "HgN/A
5:50 AM54 °FPassing clouds.3 mph88%30.21 "HgN/A
5:20 AM54 °FPassing clouds.2 mph88%30.21 "HgN/A
4:50 AM54 °FPartly cloudy.2 mph88%30.21 "HgN/A
4:20 AM54 °FPartly cloudy.3 mph88%30.21 "HgN/A
3:50 AM54 °FPassing clouds.3 mph88%30.21 "HgN/A
3:20 AM54 °FPassing clouds.2 mph88%30.21 "HgN/A
2:50 AM54 °FMostly cloudy.3 mph88%30.21 "HgN/A
2:20 AM54 °FOvercast.3 mph88%30.21 "HgN/A
1:50 AM55 °FOvercast.5 mph77%30.21 "HgN/A
1:20 AM55 °FPassing clouds.6 mph77%30.21 "HgN/A
12:50 AM55 °FPassing clouds.6 mph77%30.21 "HgN/A
12:20 AM55 °FPassing clouds.6 mph77%30.21 "HgN/A
11:50 PM
Sep 1
55 °FPassing clouds.6 mph77%30.18 "HgN/A
11:20 PM55 °FClear.5 mph77%30.18 "Hg10 mi
10:50 PM55 °FClear.6 mph77%30.18 "Hg10 mi
10:20 PM55 °FClear.7 mph77%30.18 "Hg10 mi
9:20 PM55 °FClear.7 mph72%30.18 "Hg10 mi
8:50 PM57 °FSunny.8 mph67%30.18 "Hg10 mi
8:20 PM57 °FSunny.8 mph67%30.15 "Hg10 mi
7:50 PM61 °FSunny.9 mph59%30.15 "Hg10 mi
7:20 PM63 °FPassing clouds.12 mph56%30.15 "HgN/A
6:50 PM63 °FPartly sunny.13 mph56%30.15 "HgN/A
6:20 PM63 °FPartly sunny.12 mph59%30.15 "HgN/A
5:50 PM64 °FPartly sunny.15 mph60%30.12 "HgN/A
5:20 PM64 °FPartly sunny.14 mph64%30.12 "HgN/A
Weather by CustomWeather, © 2014

See weather overviewHow to use our weather pages